Bavaria

Go HERE for most recent data if this page is not up to date.

Jump to table bottom
Date Time Temp F RH % AVG Wind Max Wind Wind Dir 24 Snow Depth
02/29 07:00 19.4 86 3 6 W - 266 0.3 44.0
02/29 06:00 19.1 87 3 7 NW - 320 0.2 152.5
02/29 05:00 19.0 88 3 7 W - 265 0.3 44.4
02/29 04:00 15.8 87 3 9 SW - 242 0.2 44.2
02/29 03:00 15.3 87 3 10 W - 279 0.2 44.1
02/29 02:00 15.1 87 2 11 W - 251 0.1 44.1
02/29 01:00 16.3 87 2 6 E - 78 0.2 44.5
02/29 00:00 16.3 87 2 7 S - 171 0.1 44.4
02/28 23:00 16.1 87 1 5 NE - 67 0.2 44.0
02/28 22:00 17.2 87 3 7 NW - 298 0.0 44.2
02/28 21:00 20.1 88 2 8 SW - 213 0.2 43.9
02/28 20:00 20.1 88 3 9 W - 271 0.1 43.8
02/28 19:00 20.0 88 3 10 W - 275 0.1 43.8
02/28 18:00 20.9 89 3 11 W - 283 0.1 152.5
02/28 17:00 21.4 88 2 6 W - 272 -0.0 152.5
02/28 16:00 25.5 88 2 7 SW - 234 -0.0 152.5
02/28 15:00 23.8 88 3 9 S - 182 -0.2 152.5
02/28 14:00 24.8 88 3 8 N - 7 -0.0 44.4
02/28 13:00 21.3 88 3 10 SW - 217 0.0 152.5
02/28 12:00 19.0 87 2 7 SW - 228 0.0 152.5
02/28 11:00 18.2 87 2 8 S - 168 0.1 152.5
02/28 10:00 16.8 86 1 6 W - 256 0.0 43.3
02/28 09:00 12.7 85 0 6 N - 348 0.0 41.6
02/28 08:00 10.9 85 0 6 S - 199 0.2 41.2
02/28 07:00 10.3 85 2 7 W - 260 0.2 42.0
02/28 06:00 8.2 84 3 7 SW - 243 0.2 41.0
02/28 05:00 7.1 83 2 8 W - 284 0.2 40.7
02/28 04:00 6.0 83 4 11 NE - 52 0.2 40.7
02/28 03:00 4.7 82 4 13 W - 270 0.2 40.8
02/28 02:00 3.0 81 3 9 W - 254 0.3 41.0
02/28 01:00 1.7 81 3 8 NE - 34 0.2 40.9
02/28 00:00 1.2 81 4 12 W - 286 0.2 -7.6
.